Content
SEND FEEDBACK

Daily
Averages
Monthly
Summary
United States of America

MANNING, SOUTH CAROLINA


Home > North America > United States > South Carolina
Elevation: 112 feet     Latitude: 33 40N     Longitude: 080 13W

WEATHER
 
SELECT A DAY
Number of Records: 128,645;   Date Range: 12/8/08 - 10/22/14
 
SHARE

PRINT THIS DATA

[ ← Previous Day ]
WEATHER ALMANAC - JANUARY 31, 2013
[ Next Day → ]
[ °C ]   °F
Weather ElementAverageHighLow
Temperature50.4 °F55.4 °F (1:15 pm)44.6 °F (7:35 am)
Dewpoint23.2 °F42.8 °F (1:35 am)-9.4 °F (2:35 pm)
Humidity39.2 %67 % (1:15 am)7 % (2:35 pm)
Barometer29.97 in30.16 in (10:55 pm)29.71 in (12:55 am)
Wind Speed10.4 mph23 mph (4:55 am)
Wind Gust34.5 mph (4:35 am)
Weather ElementAverage
Visibility10 mi
Wind DirectionWSW (247.7 °)

Weather ElementTotal
Precipitation0.08 in
Heating Degree Days15 (Base 65)
Averaged from 71 records on January 31, 2013
WEATHER CONDITIONS BREAKOUT
WIND DIRECTION BREAKOUT
WEATHER BY HOUR - JANUARY 31, 2013
[ °C ]   °F
Local TimeTemperatureDewpointHumidityBarometerVisibilityWind DirectionWind SpeedGust SpeedPrecipitationEventsConditions
12:35 AM53.6 °F39.2 °F58 %29.72 in7.0 miSW (220°)17.3 mph25.3 mph0.03 inOvercast
12:55 AM51.8 °F39.2 °F62 %29.71 in10.0 miSW (220°)11.5 mph20.7 mph0.05 inOvercast
1:15 AM51.8 °F41.0 °F67 %29.71 in10.0 miSW (220°)10.4 mphOvercast
1:35 AM53.6 °F42.8 °F67 %29.72 in10.0 miSW (230°)9.2 mphOvercast
1:55 AM53.6 °F42.8 °F67 %29.72 in10.0 miSW (230°)8.1 mphOvercast
2:15 AM53.6 °F42.8 °F67 %29.74 in10.0 miSW (230°)10.4 mphOvercast
2:35 AM53.6 °F41.0 °F62 %29.73 in10.0 miSW (220°)9.2 mphOvercast
2:55 AM53.6 °F42.8 °F67 %29.75 in10.0 miSW (230°)13.8 mph20.7 mphOvercast
3:15 AM53.6 °F41.0 °F62 %29.75 in10.0 miSW (230°)10.4 mph17.3 mphMostly Cloudy
3:35 AM53.6 °F41.0 °F62 %29.75 in10.0 miSW (220°)13.8 mph21.9 mphOvercast
3:55 AM53.6 °F41.0 °F62 %29.76 in10.0 miSW (230°)13.8 mph20.7 mphOvercast
4:15 AM53.6 °F39.2 °F58 %29.78 in10.0 miWest (260°)9.2 mph20.7 mphOvercast
4:35 AM51.8 °F28.4 °F41 %29.81 in10.0 miWest (260°)20.7 mph34.5 mphScattered Clouds
4:55 AM50.0 °F19.4 °F30 %29.83 in10.0 miWest (260°)23.0 mph31.1 mphClear
5:15 AM50.0 °F23.0 °F35 %29.83 in10.0 miWSW (250°)16.1 mph29.9 mphClear
5:35 AM50.0 °F32.0 °F50 %29.84 in10.0 miWest (260°)15.0 mph27.6 mphClear
5:55 AM48.2 °F30.2 °F50 %29.84 in10.0 miWSW (250°)11.5 mph28.8 mphClear
6:15 AM46.4 °F32.0 °F57 %29.87 in10.0 miWest (260°)17.3 mph27.6 mphClear
6:35 AM46.4 °F32.0 °F57 %29.89 in10.0 miWSW (250°)11.5 mph21.9 mphClear
6:55 AM46.4 °F30.2 °F53 %29.90 in10.0 miWest (260°)10.4 mph24.2 mphClear
7:15 AM46.4 °F24.8 °F43 %29.92 in10.0 miWest (260°)10.4 mph21.9 mphClear
7:35 AM44.6 °F28.4 °F53 %29.93 in10.0 miWest (270°)9.2 mph19.6 mphClear
7:55 AM44.6 °F26.6 °F49 %29.94 in10.0 miWest (260°)10.4 mph17.3 mphClear
8:15 AM44.6 °F32.0 °F61 %29.94 in10.0 miWest (260°)15.0 mph19.6 mphClear
8:35 AM44.6 °F30.2 °F57 %29.97 in10.0 miWest (260°)15.0 mph20.7 mphClear
8:55 AM46.4 °F28.4 °F50 %29.98 in10.0 miWSW (250°)15.0 mph21.9 mphClear
9:15 AM46.4 °F28.4 °F50 %30.00 in10.0 miWest (260°)10.4 mph21.9 mphClear
9:35 AM46.4 °F28.4 °F50 %30.00 in10.0 miWest (260°)11.5 mph19.6 mphClear
9:55 AM46.4 °F28.4 °F50 %30.00 in10.0 miWNW (290°)11.5 mph24.2 mphClear
10:15 AM48.2 °F28.4 °F46 %30.00 in10.0 miWest (260°)16.1 mph21.9 mphClear
10:35 AM48.2 °F23.0 °F37 %30.01 in10.0 miWest (270°)12.7 mph19.6 mphClear
10:55 AM50.0 °F23.0 °F35 %30.01 in10.0 miWNW (300°)9.2 mph19.6 mphClear
11:15 AM50.0 °F23.0 °F35 %30.01 in10.0 miWest (280°)12.7 mph18.4 mphClear
11:35 AM51.8 °F14.0 °F22 %30.01 in10.0 miWest (270°)9.2 mph16.1 mphClear
11:55 AM51.8 °F26.6 °F38 %30.01 in10.0 miWest (260°)13.8 mph19.6 mphClear
12:15 PM53.6 °F3.2 °F13 %30.00 in10.0 miWNW (290°)11.5 mph17.3 mphClear
12:35 PM53.6 °F10.4 °F18 %30.00 in10.0 miWNW (290°)10.4 mph19.6 mphClear
12:55 PM53.6 °F17.6 °F24 %29.99 in10.0 miWNW (290°)11.5 mph20.7 mphClear
1:15 PM55.4 °F17.6 °F23 %29.99 in10.0 miWest (260°)9.2 mph21.9 mphClear
1:35 PM55.4 °F5.0 °F13 %29.98 in10.0 miWest (270°)9.2 mph19.6 mphClear
1:55 PM55.4 °F23.0 °F29 %29.99 in10.0 miWest (270°)16.1 mph27.6 mphClear
2:15 PM55.4 °F5.0 °F13 %29.99 in10.0 miWest (260°)13.8 mph24.2 mphClear
2:35 PM55.4 °F-9.4 °F7 %29.99 in10.0 miWest (270°)15.0 mph25.3 mphClear
2:55 PM55.4 °F-2.2 °F9 %29.99 in10.0 miWest (270°)11.5 mph27.6 mphClear
3:15 PM55.4 °F-4.0 °F9 %30.00 in10.0 miWSW (250°)13.8 mph25.3 mphClear
3:35 PM55.4 °F-0.4 °F10 %30.01 in10.0 miWSW (250°)13.8 mph23.0 mphClear
3:55 PM55.4 °F-4.0 °F9 %30.00 in10.0 miWest (270°)16.1 mph25.3 mphClear
4:15 PM55.4 °F8.6 °F15 %30.01 in10.0 miWest (270°)10.4 mph19.6 mphClear
4:35 PM55.4 °F17.6 °F23 %30.02 in10.0 miWest (260°)12.7 mph20.7 mphClear
4:55 PM55.4 °F10.4 °F17 %30.03 in10.0 miWest (270°)12.7 mph24.2 mphClear
5:15 PM55.4 °F8.6 °F15 %30.04 in10.0 miWNW (290°)11.5 mph19.6 mphClear
5:35 PM53.6 °F8.6 °F16 %30.04 in10.0 miWest (280°)10.4 mph18.4 mphClear
5:55 PM53.6 °F10.4 °F18 %30.05 in10.0 miWNW (290°)5.8 mphClear
6:15 PM51.8 °F14.0 °F22 %30.06 in10.0 miWest (260°)4.6 mphClear
6:35 PM50.0 °F15.8 °F26 %30.07 in10.0 miWest (260°)3.5 mphClear
6:55 PM50.0 °F19.4 °F30 %30.08 in10.0 miWest (260°)4.6 mphClear
7:15 PM50.0 °F24.8 °F37 %30.09 in10.0 miWest (260°)3.5 mphClear
7:35 PM50.0 °F24.8 °F37 %30.10 in10.0 miCalmClear
7:55 PM48.2 °F26.6 °F43 %30.10 in10.0 miCalmClear
8:15 PM46.4 °F26.6 °F46 %30.10 in10.0 miSW (230°)3.5 mphClear
8:35 PM46.4 °F26.6 °F46 %30.11 in10.0 miWSW (240°)3.5 mphClear
8:55 PM46.4 °F26.6 °F46 %30.12 in10.0 miSW (230°)3.5 mphClear
9:15 PM46.4 °F23.0 °F40 %30.12 in10.0 miWSW (240°)5.8 mphClear
9:35 PM46.4 °F26.6 °F46 %30.13 in10.0 miWSW (240°)3.5 mphClear
9:55 PM46.4 °F23.0 °F40 %30.14 in10.0 miWSW (240°)5.8 mphClear
10:15 PM44.6 °F19.4 °F37 %30.14 in10.0 miSW (230°)5.8 mphClear
10:35 PM44.6 °F26.6 °F49 %30.15 in10.0 miWSW (240°)5.8 mphClear
10:55 PM46.4 °F15.8 °F29 %30.16 in10.0 miWSW (240°)4.6 mphClear
11:15 PM46.4 °F23.0 °F40 %30.15 in10.0 miWSW (240°)6.9 mphClear
11:35 PM46.4 °F26.6 °F46 %30.16 in10.0 miWSW (240°)6.9 mphClear
11:55 PM46.4 °F17.6 °F32 %30.16 in10.0 miWSW (240°)6.9 mphClear
Hourly data recorded from KMNI, located miles away from Manning, South Carolina







STORIES FROM OUR PARTNERS